Regional Weather Roundup
Issued by NWS

Home | Current Version | Previous Version | Graphics & Text | Print | Product List | Glossary On
Versions: 1 2 3 4 5 6 7 8 9 10 11 12 13 14 15 16 17 18 19 20 21 22 23 24 25 26 27 28 29 30 31 32 33 34 35 36 37 38 39 40 41 42 43 44 45 46 47 48 49 50
000
ASUS45 KPSR 011110
RWRAZ

ARIZONA HOURLY REGIONAL WEATHER ROUNDUP
NATIONAL WEATHER SERVICE PHOENIX AZ
400 AM MST SUN MAY 01 2016

NOTE: FAIR INDICATES FEW OR NO CLOUDS BELOW 12,000 FEET WITH NO
SIGNIFICANT WEATHER AND/OR OBSTRUCTIONS TO VISIBILITY.

AZZ001>003-036-011200-
NORTHWEST ARIZONA

CITY           SKY/WX    TMP DP  RH WIND       PRES   REMARKS
BULLHEAD CITY  MOCLDY    64  48  55 N13       29.81R
KINGMAN        CLOUDY    47  43  86 E3        29.84S
$$

AZZ004>008-015-016-018-011200-
NORTH CENTRAL ARIZONA

CITY           SKY/WX    TMP DP  RH WIND       PRES   REMARKS
GRAND CANYON   CLOUDY    41  34  76 NE12G22   29.88R
WILLIAMS       CLOUDY    36  34  93 S5        29.94S WCI  32
PRESCOTT       CLOUDY    42  40  92 CALM      29.84S
FLAGSTAFF      LGT SNOW  33  33 100 CALM      29.87R FOG
PAYSON         CLOUDY    43  37  81 CALM      29.86R
PAGE           MOCLDY    50  34  54 N5        29.87R
$$

AZZ009>014-017-011200-
NORTHEAST ARIZONA

CITY           SKY/WX    TMP DP  RH WIND       PRES   REMARKS
WINSLOW        CLOUDY    41  39  93 S9        29.85R
SAINT JOHNS    PTCLDY    39  36  89 N5        29.86R
WINDOW ROCK    CLOUDY    35  33  92 E7        29.90F WCI  29
SHOW LOW       PTCLDY    32  32 100 S8        29.87S WCI  25
$$

AZZ023-011200-
GREATER PHOENIX AREA

CITY           SKY/WX    TMP DP  RH WIND       PRES   REMARKS
PHOENIX        MOCLDY    60  47  61 E5        29.75R
BUCKEYE        PTCLDY    54  54 100 NW5       29.77R
LUKE AFB       MOCLDY    57  48  70 NW7       29.75R
DEER VALLEY    PTCLDY    56  44  64 E6        29.76R
SCOTTSDALE     MOCLDY    56  48  74 CALM      29.77R
MESA-GATEWAY   CLOUDY    57  45  62 NE3       29.77S
$$

AZZ027-028-011200-
SOUTHWEST MARICOPA COUNTY AND PINAL COUNTY

CITY           SKY/WX    TMP DP  RH WIND       PRES   REMARKS
CASA GRANDE    CLOUDY    61  45  55 NE5       29.78R
GILA BEND      MOCLDY    57  51  81 E3        29.74R
$$

AZZ503-504-507>509-011200-
SOUTHEAST ARIZONA

CITY           SKY/WX    TMP DP  RH WIND       PRES   REMARKS
TUCSON         CLEAR     56  35  45 SE6       29.83R
DAVIS-MONTHAN  PTCLDY    53  35  51 S6        29.81R
NOGALES        CLEAR     49  36  61 S5        29.85R
SIERRA VISTA   CLEAR     51  35  55 S13       29.87R
DOUGLAS        CLEAR     51  35  54 SW10      29.87R
SAFFORD        MOCLDY    51  43  74 NE5       29.82R
$$

AZZ020-021-025-026-031-011200-
SOUTHWEST ARIZONA

CITY           SKY/WX    TMP DP  RH WIND       PRES   REMARKS
YUMA           CLEAR     63  47  55 NW5       29.75R
$$

CAZ031-033-041-043-047-048-061-011200-
SOUTHERN CALIFORNIA

CITY           SKY/WX    TMP DP  RH WIND       PRES   REMARKS
DOWNTOWN L.A.  MOCLDY    59  52  77 E3        29.85R
L.A. AIRPORT   MOCLDY    57  50  77 CALM      29.85S
SAN DIEGO      MOCLDY    62  53  72 SW3       29.87R
BURBANK        CLEAR     55  46  71 CALM      29.84S
ONTARIO        PTCLDY    54  46  74 W3        29.85R
RIVERSIDE      MOCLDY    53  47  79 CALM      29.85S
PALM SPRINGS   CLEAR     62  48  60 SW3       29.79R
EL CENTRO NAS  CLEAR     61  44  53 SW8       29.76R
IMPERIAL       CLEAR     62  46  55 W8        29.74R
BLYTHE         CLEAR     56  49  77 W3        29.76R
NEEDLES        PTCLDY    61  49  64 N3        29.78R
$$

NVZ020-UTZ003-011200-
SOUTHERN NEVADA-UTAH

CITY           SKY/WX    TMP DP  RH WIND       PRES   REMARKS
LAS VEGAS      MOCLDY    55  48  77 S6        29.81R
SALT LAKE CITY CLOUDY    49  24  37 E15G24    30.03R
$$

NMZ009-TXZ055-011200-
NEW MEXICO-WEST TEXAS

CITY           SKY/WX    TMP DP  RH WIND       PRES   REMARKS
ALBUQUERQUE    CLOUDY    42  31  64 E31G44    29.95R
EL PASO        PTCLDY    55  37  50 E13       29.89R
$$


........................KEY........................
SKY/WX - SKY CONDITION/WEATHER
TMP    - TEMPERATURE IN FAHRENHEIT
DP     - DEW POINT IN FAHRENHEIT
RH     - RELATIVE HUMIDITY IN PERCENT
WIND   - DIRECTION AND SPEED IN MILES PER HOUR (MPH)
VRB    - VARIABLE WIND DIRECTION
PRES   - MEAN SEA LEVEL PRESSURE IN INCHES OF MERCURY
         F - FALLING PRESSURE   R - RISING PRESSURE
         S - STEADY PRESSURE
VSB    - VISIBILITY IN MILES
HX     - HEAT INDEX IN FAHRENHEIT
WCI    - WIND CHILL INDEX IN FAHRENHEIT
TC     - TEMPERATURE IN CELSIUS WHICH IS ALSO KNOWN AS
         TEMPERATURE IN CENTIGRADE
AFB    - AIR FORCE BASE
         LUKE AFB IS LUKE AIR FORCE BASE
         DAVIS-MONTHAN IS DAVIS-MONTHAN AIR FORCE BASE
NAS    - NAVAL AIR STATION
         EL CENTRO NAS IS EL CENTRO NAVAL AIR STATION
N/A    - NOT AVAILABLE




USA.gov is the U.S. government's official web portal to all federal, state and local government web resources and services.